Location: La Savane
(18.0962°N, 63.0646°W)
Time: 23:12:17
(UTC+00:00)

MOS 1 Rocket - Pass Details

Date: 29 October 2020
Orbit: 615 x 829 km, 97.4° (Epoch: 29 November)

Event Time Altitude Azimuth Distance (km) Brightness Sun altitude
Rises 23:06:59 0° 4° (N) 3,142 6.6 -20.8°
Reaches altitude 10° 23:09:14 10° 359° (N) 2,251 5.8 -21.4°
Maximum altitude 23:14:06 55° 282° (WNW) 920 4.1 -22.5°
Drops below altitude 10° 23:19:13 10° 206° (SSW) 2,367 6.4 -23.7°
Sets 23:21:39 0° 201° (SSW) 3,318 7.2 -24.3°
